�v������,,���ԉ��x,�����t���O,���Ԏ��x,�����t���O,2F�Q�����x,�����t���O,���ʏ����x,�����t���O,����,�����t���O,,,,
2003/1/1,0:00:00,22.7,0,48.2,0,22.8,0,21.5,0,8.5,0,,,,
2003/1/1,0:10:00,22.7,0,47.5,0,22.9,0,21.5,0,7.2,0,,,,
2003/1/1,0:20:00,22.7,0,46.9,0,22.9,0,21.5,0,6.9,0,,,,
2003/1/1,0:30:00,22.7,0,46.6,0,22.8,0,21.5,0,7.1,0,,,,
2003/1/1,0:40:00,22.6,0,46.3,0,22.7,0,21.5,0,7.2,0,,,,
2003/1/1,0:50:00,22.6,0,46.1,0,22.6,0,21.5,0,7.3,0,,,,
2003/1/1,1:00:00,22.6,0,45.9,0,22.4,0,21.5,0,7.4,0,,,,
2003/1/1,1:10:00,22.6,0,47.2,0,22.3,0,21.6,0,7.5,0,,,,
2003/1/1,1:20:00,22.6,0,48.2,0,22.3,0,21.7,0,7.6,0,,,,
2003/1/1,1:30:00,22.6,0,50,0,22.2,0,21.7,0,7.7,0,,,,
2003/1/1,1:40:00,22.6,0,49.4,0,22.2,0,21.6,0,7.8,0,,,,
2003/1/1,1:50:00,22.6,0,49.2,0,22.1,0,21.6,0,7.9,0,,,,
2003/1/1,2:00:00,22.5,0,48.9,0,22.1,0,21.5,0,8,0,,,,
2003/1/1,2:10:00,22.5,0,48.5,0,22,0,21.5,0,8.1,0,,,,
2003/1/1,2:20:00,22.4,0,48.1,0,21.9,0,21.4,0,8.2,0,,,,
2003/1/1,2:30:00,22.4,0,47.7,0,21.9,0,21.4,0,8.3,0
2003/1/1,2:40:00,22.3,0,47.3,0,21.9,0,21.3,0,8.3,0
2003/1/1,2:50:00,22.3,0,47,0,21.8,0,21.3,0,8.4,0
2003/1/1,3:00:00,22.2,0,46.7,0,21.7,0,21.3,0,8.5,0
2003/1/1,3:10:00,22.2,0,46.5,0,21.7,0,21.2,0,8.6,0
2003/1/1,3:20:00,22.1,0,46.2,0,21.6,0,21.2,0,8.7,0
2003/1/1,3:30:00,22.1,0,46.1,0,21.5,0,21.2,0,8.8,0
2003/1/1,3:40:00,22.1,0,45.8,0,21.5,0,21.1,0,8.8,0
2003/1/1,3:50:00,22,0,45.7,0,21.4,0,21.1,0,8.9,0
2003/1/1,4:00:00,21.9,0,45.6,0,21.3,0,21.1,0,9,0
2003/1/1,4:10:00,21.9,0,45.4,0,21.3,0,21,0,9.1,0
2003/1/1,4:20:00,21.9,0,45.3,0,21.2,0,21,0,9.1,0
2003/1/1,4:30:00,21.8,0,45.2,0,21.2,0,21,0,9.2,0
2003/1/1,4:40:00,21.8,0,45.1,0,21.1,0,20.9,0,9.3,0
2003/1/1,4:50:00,21.7,0,45,0,21,0,20.9,0,9.4,0
2003/1/1,5:00:00,21.7,0,45,0,21,0,20.9,0,9.4,0
2003/1/1,5:10:00,21.6,0,44.7,0,20.9,0,20.8,0,9.5,0
2003/1/1,5:20:00,21.6,0,44.8,0,20.9,0,20.8,0,9.6,0
2003/1/1,5:30:00,21.5,0,44.6,0,20.8,0,20.8,0,9.6,0
2003/1/1,5:40:00,21.5,0,44.5,0,20.8,0,20.7,0,9.7,0
2003/1/1,5:50:00,21.4,0,44.5,0,20.7,0,20.7,0,9.8,0
2003/1/1,6:00:00,21.4,0,44.3,0,20.7,0,20.7,0,9.8,0
2003/1/1,6:10:00,21.3,0,44.3,0,20.6,0,20.6,0,9.9,0
2003/1/1,6:20:00,21.3,0,44.1,0,20.6,0,20.6,0,9.9,0
2003/1/1,6:30:00,21.3,0,44.1,0,20.5,0,20.6,0,10,0
2003/1/1,6:40:00,21.2,0,44.1,0,20.4,0,20.5,0,10.1,0
2003/1/1,6:50:00,21.2,0,44.1,0,20.4,0,20.5,0,10.1,0
2003/1/1,7:00:00,21.2,0,43.5,0,20.4,0,20.5,0,10.2,0
2003/1/1,7:10:00,21.1,0,43.2,0,20.3,0,20.4,0,10.3,0
2003/1/1,7:20:00,21.1,0,43.5,0,20.3,0,20.4,0,8.1,0
2003/1/1,7:30:00,21.1,0,43.5,0,20.2,0,20.4,0,8.2,0
2003/1/1,7:40:00,21.1,0,43.3,0,20.1,0,20.4,0,8.2,0
2003/1/1,7:50:00,21.2,0,44,0,20.1,0,20.4,0,8.3,0
2003/1/1,8:00:00,21.2,0,44,0,20.1,0,20.4,0,7.3,0
2003/1/1,8:10:00,21.2,0,44.6,0,20.1,0,20.4,0,7.6,0
2003/1/1,8:20:00,21.2,0,45,0,20.1,0,20.4,0,7.6,0
2003/1/1,8:30:00,21.2,0,44.7,0,20.1,0,20.4,0,7.7,0
2003/1/1,8:40:00,21.2,0,44.7,0,20.2,0,20.5,0,7.8,0
2003/1/1,8:50:00,21.3,0,44.8,0,20.2,0,20.6,0,7.9,0
2003/1/1,9:00:00,21.3,0,44.7,0,20.3,0,20.6,0,6.7,0
2003/1/1,9:10:00,21.3,0,44.7,0,20.4,0,20.7,0,6.7,0
2003/1/1,9:20:00,21.4,0,44.8,0,20.5,0,20.7,0,6.8,0
2003/1/1,9:30:00,21.5,0,47.2,0,20.5,0,20.8,0,6.9,0
2003/1/1,9:40:00,21.8,0,51.3,0,20.7,0,20.9,0,7,0
2003/1/1,9:50:00,21.9,0,51.7,0,20.8,0,21,0,6.8,0
2003/1/1,10:00:00,21.9,0,50.4,0,21,0,21.1,0,6.9,0
2003/1/1,10:10:00,22.1,0,53,0,21.1,0,21.2,0,7,0
2003/1/1,10:20:00,22.1,0,52.6,0,21.3,0,21.3,0,7.1,0
2003/1/1,10:30:00,22.1,0,51,0,21.5,0,21.3,0,7.2,0
2003/1/1,10:40:00,22.2,0,50.3,0,21.7,0,21.3,0,7.3,0
2003/1/1,10:50:00,22.2,0,49.8,0,21.9,0,21.3,0,7.4,0
2003/1/1,11:00:00,22.3,0,49.6,0,22,0,21.3,0,7.5,0
2003/1/1,11:10:00,22.3,0,49.4,0,22.2,0,21.4,0,7.6,0
2003/1/1,11:20:00,22.4,0,49.2,0,22.4,0,21.4,0,6.9,0
2003/1/1,11:30:00,22.5,0,49.4,0,22.6,0,21.5,0,7.2,0
2003/1/1,11:40:00,22.6,0,49.3,0,22.8,0,21.5,0,7.3,0
2003/1/1,11:50:00,22.7,0,49.3,0,23,0,21.6,0,7.4,0
2003/1/1,12:00:00,22.8,0,49.1,0,23.2,0,21.6,0,6.9,0
2003/1/1,12:10:00,23,0,49.2,0,23.4,0,21.7,0,7.2,0
2003/1/1,12:20:00,23.1,0,49.2,0,23.6,0,21.7,0,7.2,0
2003/1/1,12:30:00,23.2,0,49,0,23.8,0,21.8,0,7.3,0
2003/1/1,12:40:00,23.3,0,48.8,0,24,0,21.9,0,7.4,0
2003/1/1,12:50:00,23.4,0,48.6,0,24.2,0,21.9,0,7.5,0
2003/1/1,13:00:00,23.5,0,48.8,0,24.4,0,22,0,7.6,0
2003/1/1,13:10:00,23.5,0,48.8,0,24.5,0,22,0,7.7,0
2003/1/1,13:20:00,23.6,0,48.9,0,24.6,0,22,0,7.8,0
2003/1/1,13:30:00,23.6,0,47.9,0,24.7,0,22,0,7.9,0
2003/1/1,13:40:00,23.7,0,48.1,0,24.8,0,22,0,8,0
2003/1/1,13:50:00,23.7,0,48,0,24.8,0,22,0,8.1,0
2003/1/1,14:00:00,23.7,0,47.7,0,24.9,0,21.9,0,8.1,0
2003/1/1,14:10:00,23.7,0,47.8,0,24.8,0,21.9,0,8.2,0
2003/1/1,14:20:00,23.7,0,47.4,0,24.8,0,21.9,0,8.3,0
2003/1/1,14:30:00,23.7,0,47.6,0,24.7,0,21.8,0,8.4,0
2003/1/1,14:40:00,23.8,0,47.2,0,24.7,0,21.9,0,8.5,0
2003/1/1,14:50:00,23.8,0,47.2,0,24.8,0,21.9,0,8.5,0
2003/1/1,15:00:00,23.9,0,47.1,0,24.8,0,21.9,0,8.6,0
2003/1/1,15:10:00,23.9,0,46.9,0,24.8,0,22,0,8.7,0
2003/1/1,15:20:00,24,0,46.8,0,24.8,0,22,0,8.8,0
2003/1/1,15:30:00,23.9,0,46.7,0,24.7,0,22,0,8.8,0
2003/1/1,15:40:00,23.9,0,46.4,0,24.6,0,22,0,8.9,0
2003/1/1,15:50:00,23.9,0,46.4,0,24.5,0,22,0,9,0
2003/1/1,16:00:00,23.8,0,46.3,0,24.4,0,21.9,0,9.1,0
2003/1/1,16:10:00,23.8,0,46.2,0,24.4,0,21.9,0,9.1,0
2003/1/1,16:20:00,23.7,0,46,0,24.3,0,21.9,0,9.2,0
2003/1/1,16:30:00,23.7,0,45.8,0,24.2,0,21.9,0,9.3,0
2003/1/1,16:40:00,23.7,0,45.7,0,24.1,0,21.8,0,9.3,0
2003/1/1,16:50:00,23.6,0,45.3,0,24,0,21.8,0,9.4,0
2003/1/1,17:00:00,23.6,0,45,0,24,0,21.8,0,9.5,0
2003/1/1,17:10:00,23.6,0,44.8,0,23.9,0,21.8,0,9.5,0
2003/1/1,17:20:00,23.6,0,45,0,23.8,0,21.8,0,9.6,0
2003/1/1,17:30:00,23.6,0,45,0,23.8,0,21.9,0,9.7,0
2003/1/1,17:40:00,23.6,0,44.7,0,23.8,0,21.9,0,9.7,0
2003/1/1,17:50:00,23.5,0,44.9,0,23.7,0,21.9,0,9.8,0
2003/1/1,18:00:00,23.5,0,44.9,0,23.7,0,21.8,0,9.9,0
2003/1/1,18:10:00,23.5,0,44.8,0,23.7,0,21.8,0,10,0
2003/1/1,18:20:00,23.5,0,44.8,0,23.6,0,21.8,0,7.7,0
2003/1/1,18:30:00,23.5,0,44.9,0,23.6,0,21.8,0,7.8,0
2003/1/1,18:40:00,23.4,0,44.9,0,23.6,0,21.8,0,7.8,0
2003/1/1,18:50:00,23.4,0,45,0,23.6,0,21.8,0,7.9,0
2003/1/1,19:00:00,23.4,0,45.1,0,23.6,0,21.8,0,8,0
2003/1/1,19:10:00,23.4,0,45.1,0,23.6,0,21.7,0,8.1,0
2003/1/1,19:20:00,23.3,0,45.2,0,23.6,0,21.7,0,8.2,0
2003/1/1,19:30:00,23.3,0,45.2,0,23.6,0,21.7,0,8.3,0
2003/1/1,19:40:00,23.3,0,45.2,0,23.6,0,21.7,0,8.4,0
2003/1/1,19:50:00,23.3,0,45.1,0,23.6,0,21.7,0,8.4,0
2003/1/1,20:00:00,23.2,0,45.1,0,23.6,0,21.7,0,8.5,0
2003/1/1,20:10:00,23.2,0,45.1,0,23.6,0,21.7,0,8.6,0
2003/1/1,20:20:00,23.2,0,45,0,23.5,0,21.6,0,8.7,0
2003/1/1,20:30:00,23.1,0,44.7,0,23.5,0,21.6,0,8.8,0
2003/1/1,20:40:00,23.2,0,44.9,0,23.5,0,21.6,0,8.8,0
2003/1/1,20:50:00,23.1,0,44.8,0,23.5,0,21.6,0,8.9,0
2003/1/1,21:00:00,23.1,0,45.2,0,23.5,0,21.6,0,9,0
2003/1/1,21:10:00,23.1,0,45.2,0,23.5,0,21.6,0,9.1,0
2003/1/1,21:20:00,23.1,0,45.1,0,23.4,0,21.6,0,9.1,0
2003/1/1,21:30:00,23,0,45.1,0,23.4,0,21.6,0,9.2,0
2003/1/1,21:40:00,23,0,44.9,0,23.4,0,21.6,0,9.3,0
2003/1/1,21:50:00,23,0,44.8,0,23.4,0,21.7,0,9.4,0
2003/1/1,22:00:00,23,0,44.6,0,23.4,0,21.7,0,9.4,0
2003/1/1,22:10:00,23,0,44.7,0,23.4,0,21.8,0,9.5,0
2003/1/1,22:20:00,23,0,45.6,0,23.3,0,21.9,0,9.6,0
2003/1/1,22:30:00,22.9,0,46.3,0,23.3,0,21.8,0,9.7,0
2003/1/1,22:40:00,22.9,0,46.2,0,23.3,0,21.8,0,9.7,0
2003/1/1,22:50:00,22.8,0,45.9,0,23.2,0,21.7,0,9.8,0
2003/1/1,23:00:00,22.8,0,45.5,0,23.2,0,21.7,0,9.9,0
2003/1/1,23:10:00,22.8,0,45.6,0,23.2,0,21.6,0,9.9,0
2003/1/1,23:20:00,22.7,0,44.9,0,23.2,0,21.6,0,10,0
2003/1/1,23:30:00,22.7,0,45,0,23.1,0,21.6,0,10.1,0
2003/1/1,23:40:00,22.6,0,44.8,0,23.1,0,21.5,0,10.2,0
2003/1/1,23:50:00,22.6,0,44.7,0,23.1,0,21.5,0,10.2,0
2003/1/2,0:00:00,22.6,0,44.2,0,23,0,21.5,0,10.3,0
2003/1/2,0:10:00,22.5,0,44.4,0,22.9,0,21.4,0,10.4,0
2003/1/2,0:20:00,22.5,0,44.1,0,22.8,0,21.4,0,10.5,0
2003/1/2,0:30:00,22.4,0,44.3,0,22.7,0,21.4,0,10.5,0
2003/1/2,0:40:00,22.4,0,44.3,0,22.6,0,21.3,0,10.6,0
2003/1/2,0:50:00,22.4,0,43.9,0,22.5,0,21.3,0,10.7,0
2003/1/2,1:00:00,22.3,0,43.8,0,22.5,0,21.3,0,10.7,0
2003/1/2,1:10:00,22.3,0,43.8,0,22.4,0,21.2,0,10.8,0
2003/1/2,1:20:00,22.2,0,44,0,22.3,0,21.2,0,10.9,0
2003/1/2,1:30:00,22.2,0,43.4,0,22.3,0,21.2,0,10.9,0
2003/1/2,1:40:00,22.1,0,43.3,0,22.2,0,21.1,0,11,0
2003/1/2,1:50:00,22.1,0,43.2,0,22.1,0,21.1,0,11.1,0
2003/1/2,2:00:00,22.1,0,43.3,0,22.1,0,21.1,0,11.1,0
2003/1/2,2:10:00,22,0,42.9,0,22,0,21.1,0,11.2,0
2003/1/2,2:20:00,21.9,0,42.8,0,22,0,21,0,11.2,0
2003/1/2,2:30:00,21.9,0,42.9,0,21.9,0,21,0,11.3,0
2003/1/2,2:40:00,21.9,0,42.6,0,21.8,0,21,0,11.3,0
2003/1/2,2:50:00,21.8,0,42.6,0,21.8,0,20.9,0,11.4,0
2003/1/2,3:00:00,21.8,0,42.6,0,21.7,0,20.9,0,11.4,0
2003/1/2,3:10:00,21.7,0,42.6,0,21.7,0,20.9,0,11.5,0
2003/1/2,3:20:00,21.7,0,42.6,0,21.6,0,20.8,0,11.5,0
2003/1/2,3:30:00,21.6,0,42.4,0,21.5,0,20.8,0,11.6,0
2003/1/2,3:40:00,21.6,0,42.2,0,21.4,0,20.8,0,11.7,0
2003/1/2,3:50:00,21.5,0,42.6,0,21.4,0,20.7,0,11.7,0
2003/1/2,4:00:00,21.5,0,42.1,0,21.3,0,20.7,0,11.7,0
2003/1/2,4:10:00,21.4,0,42.3,0,21.2,0,20.6,0,11.8,0
2003/1/2,4:20:00,21.4,0,42,0,21.2,0,20.6,0,11.8,0
2003/1/2,4:30:00,21.3,0,42,0,21.1,0,20.6,0,11.9,0
2003/1/2,4:40:00,21.3,0,42.1,0,21.1,0,20.5,0,11.9,0
2003/1/2,4:50:00,21.2,0,42.2,0,21,0,20.5,0,12,0
2003/1/2,5:00:00,21.2,0,42.1,0,20.9,0,20.5,0,12,0
2003/1/2,5:10:00,21.1,0,42.3,0,20.9,0,20.5,0,12,0
2003/1/2,5:20:00,21.1,0,42.2,0,20.8,0,20.4,0,12.1,0
2003/1/2,5:30:00,21.1,0,42.2,0,20.8,0,20.4,0,12.1,0
2003/1/2,5:40:00,21,0,42.2,0,20.7,0,20.3,0,12.2,0
2003/1/2,5:50:00,21,0,42.4,0,20.7,0,20.3,0,12.2,0
2003/1/2,6:00:00,20.9,0,42.3,0,20.6,0,20.3,0,12.2,0
2003/1/2,6:10:00,20.9,0,42.4,0,20.5,0,20.2,0,12.3,0
2003/1/2,6:20:00,20.9,0,42.1,0,20.5,0,20.2,0,12.3,0
2003/1/2,6:30:00,20.8,0,41.8,0,20.5,0,20.2,0,12.3,0
2003/1/2,6:40:00,20.8,0,41.9,0,20.4,0,20.1,0,12.4,0
2003/1/2,6:50:00,20.8,0,41.9,0,20.4,0,20.1,0,12.4,0
2003/1/2,7:00:00,20.8,0,41.3,0,20.3,0,20.1,0,12.6,0
2003/1/2,7:10:00,20.8,0,42.6,0,20.2,0,20.1,0,12.6,0
2003/1/2,7:20:00,20.8,0,42.6,0,20.2,0,20.1,0,12.6,0
2003/1/2,7:30:00,20.8,0,42.2,0,20.1,0,20,0,12.7,0
2003/1/2,7:40:00,20.8,0,41.8,0,20.1,0,20,0,12.7,0
2003/1/2,7:50:00,20.8,0,42.1,0,20,0,20.1,0,12.7,0
2003/1/2,8:00:00,20.8,0,42.1,0,19.9,0,20.1,0,12.7,0
2003/1/2,8:10:00,20.8,0,42.4,0,19.9,0,20.1,0,12.8,0
2003/1/2,8:20:00,20.8,0,42.5,0,19.9,0,20.1,0,12.8,0
2003/1/2,8:30:00,20.8,0,42.5,0,19.9,0,20.1,0,12.8,0
2003/1/2,8:40:00,20.9,0,44.7,0,19.8,0,20.2,0,12.8,0
2003/1/2,8:50:00,20.9,0,45.2,0,19.9,0,20.2,0,12.9,0
2003/1/2,9:00:00,20.9,0,45.2,0,19.9,0,20.2,0,12.9,0
2003/1/2,9:10:00,21,0,45,0,19.9,0,20.1,0,12.9,0
2003/1/2,9:20:00,21,0,45,0,20,0,20.1,0,13,0
2003/1/2,9:30:00,21,0,45.2,0,20,0,20.1,0,13,0
2003/1/2,9:40:00,21,0,45.4,0,20.1,0,20.1,0,13,0
2003/1/2,9:50:00,21.1,0,45.5,0,20.2,0,20.1,0,13.1,0
2003/1/2,10:00:00,21.1,0,45.7,0,20.2,0,20.1,0,13.1,0
2003/1/2,10:10:00,21.1,0,45.7,0,20.4,0,20.1,0,13.1,0
2003/1/2,10:20:00,21.2,0,46.1,0,20.5,0,20.1,0,13.1,0
2003/1/2,10:30:00,21.3,0,46.3,0,20.6,0,20.1,0,13.2,0
2003/1/2,10:40:00,21.3,0,46.2,0,20.8,0,20.1,0,13.2,0
2003/1/2,10:50:00,21.4,0,46.3,0,20.9,0,20.2,0,13.2,0
2003/1/2,11:00:00,21.5,0,46.7,0,21.1,0,20.2,0,13.3,0
2003/1/2,11:10:00,21.5,0,46.8,0,21.3,0,20.2,0,13.3,0
2003/1/2,11:20:00,21.7,0,47.2,0,21.5,0,20.3,0,13.3,0
2003/1/2,11:30:00,21.8,0,47.6,0,21.7,0,20.3,0,13.4,0
2003/1/2,11:40:00,21.9,0,47.9,0,21.9,0,20.4,0,13.4,0
2003/1/2,11:50:00,22,0,48.1,0,22.2,0,20.4,0,13.4,0
2003/1/2,12:00:00,22.1,0,48.2,0,22.4,0,20.5,0,13.5,0
2003/1/2,12:10:00,22.2,0,48.3,0,22.6,0,20.6,0,13.5,0
2003/1/2,12:20:00,22.3,0,48.4,0,22.8,0,20.6,0,13.5,0
2003/1/2,12:30:00,22.4,0,48.6,0,23,0,20.6,0,13.6,0
2003/1/2,12:40:00,22.4,0,48.6,0,23.1,0,20.6,0,13.6,0
2003/1/2,12:50:00,22.5,0,48.5,0,23.3,0,20.6,0,13.6,0
2003/1/2,13:00:00,22.6,0,48.4,0,23.4,0,20.6,0,13.7,0
2003/1/2,13:10:00,22.6,0,47.9,0,23.5,0,20.6,0,13.7,0
2003/1/2,13:20:00,22.6,0,47.7,0,23.5,0,20.6,0,13.7,0
2003/1/2,13:30:00,22.5,0,47.6,0,23.4,0,20.5,0,13.8,0
2003/1/2,13:40:00,22.5,0,47.4,0,23.4,0,20.5,0,13.8,0
2003/1/2,13:50:00,22.5,0,47.7,0,23.4,0,20.4,0,13.8,0
2003/1/2,14:00:00,22.6,0,47.6,0,23.4,0,20.4,0,13.8,0
2003/1/2,14:10:00,22.6,0,47.6,0,23.4,0,20.4,0,13.9,0
2003/1/2,14:20:00,22.6,0,47.2,0,23.5,0,20.4,0,13.9,0
2003/1/2,14:30:00,22.6,0,47.3,0,23.4,0,20.4,0,13.9,0
2003/1/2,14:40:00,22.5,0,47.2,0,23.3,0,20.4,0,13.9,0
2003/1/2,14:50:00,22.5,0,47.9,0,23.2,0,20.5,0,14,0
2003/1/2,15:00:00,22.5,0,48.4,0,23.1,0,20.4,0,14,0
2003/1/2,15:10:00,22.4,0,47.1,0,23.1,0,20.4,0,14,0
2003/1/2,15:20:00,22.5,0,47,0,23,0,20.4,0,14,0
2003/1/2,15:30:00,22.5,0,47.5,0,22.9,0,20.5,0,14,0
2003/1/2,15:40:00,22.5,0,47.9,0,22.9,0,20.5,0,14.1,0
2003/1/2,15:50:00,22.5,0,47.2,0,22.8,0,20.5,0,9.8,0
2003/1/2,16:00:00,22.5,0,47.2,0,22.7,0,20.5,0,9.8,0
2003/1/2,16:10:00,22.5,0,47.6,0,22.7,0,20.5,0,9.8,0
2003/1/2,16:20:00,22.5,0,47.8,0,22.6,0,20.5,0,9.9,0
2003/1/2,16:30:00,22.5,0,48,0,22.6,0,20.5,0,8.2,0
2003/1/2,16:40:00,22.5,0,47.5,0,22.5,0,20.5,0,8.3,0
2003/1/2,16:50:00,22.5,0,47.5,0,22.5,0,20.5,0,8.3,0
2003/1/2,17:00:00,22.5,0,48.1,0,22.4,0,20.5,0,8.4,0
2003/1/2,17:10:00,22.5,0,47.9,0,22.4,0,20.6,0,7,0
2003/1/2,17:20:00,22.6,0,48.5,0,22.3,0,20.6,0,7.1,0
2003/1/2,17:30:00,22.6,0,48.5,0,22.3,0,20.7,0,7.2,0
2003/1/2,17:40:00,22.6,0,48,0,22.3,0,20.7,0,7.3,0
2003/1/2,17:50:00,22.6,0,48.3,0,22.3,0,20.8,0,7.4,0
2003/1/2,18:00:00,22.7,0,47.9,0,22.3,0,20.8,0,7.5,0
2003/1/2,18:10:00,22.7,0,46.7,0,22.3,0,20.8,0,7.6,0
2003/1/2,18:20:00,22.7,0,46,0,22.3,0,20.7,0,7.7,0
2003/1/2,18:30:00,22.7,0,46.4,0,22.4,0,20.7,0,7.8,0
2003/1/2,18:40:00,22.7,0,46.6,0,22.4,0,20.8,0,7.9,0
2003/1/2,18:50:00,22.8,0,47,0,22.4,0,20.8,0,8,0
2003/1/2,19:00:00,22.8,0,47.4,0,22.4,0,20.9,0,8.1,0
2003/1/2,19:10:00,22.9,0,47.5,0,22.4,0,20.9,0,8.2,0
2003/1/2,19:20:00,22.9,0,48.2,0,22.5,0,21,0,8.2,0
2003/1/2,19:30:00,23,0,48.8,0,22.5,0,21,0,7.6,0
2003/1/2,19:40:00,23,0,48.5,0,22.5,0,21.1,0,7.7,0
2003/1/2,19:50:00,23,0,48.2,0,22.6,0,21.1,0,7,0
2003/1/2,20:00:00,23.1,0,48.4,0,22.6,0,21.2,0,7.3,0
2003/1/2,20:10:00,23.1,0,48.5,0,22.6,0,21.2,0,7.4,0
2003/1/2,20:20:00,23.1,0,48.3,0,22.7,0,21.2,0,7.5,0
2003/1/2,20:30:00,23.2,0,48.4,0,22.7,0,21.3,0,7.6,0
2003/1/2,20:40:00,23.2,0,48.2,0,22.7,0,21.3,0,7.2,0
2003/1/2,20:50:00,23.2,0,48.1,0,22.7,0,21.3,0,7.3,0
2003/1/2,21:00:00,23.2,0,48.3,0,22.8,0,21.4,0,7.4,0
2003/1/2,21:10:00,23.3,0,48.4,0,22.8,0,21.4,0,7.1,0
2003/1/2,21:20:00,23.3,0,48.2,0,22.8,0,21.4,0,7.2,0
2003/1/2,21:30:00,23.3,0,47.9,0,22.8,0,21.4,0,6.9,0
2003/1/2,21:40:00,23.3,0,47.8,0,22.8,0,21.4,0,7.1,0
2003/1/2,21:50:00,23.3,0,47.8,0,22.8,0,21.5,0,7.2,0
2003/1/2,22:00:00,23.3,0,47.7,0,22.9,0,21.5,0,7.3,0
2003/1/2,22:10:00,23.3,0,47.4,0,22.9,0,21.5,0,6.2,0
2003/1/2,22:20:00,23.4,0,47.4,0,22.9,0,21.5,0,6.4,0
2003/1/2,22:30:00,23.3,0,46.5,0,22.9,0,21.5,0,6.3,0
2003/1/2,22:40:00,23.3,0,46.1,0,22.9,0,21.5,0,6.5,0
2003/1/2,22:50:00,23.3,0,46.2,0,22.9,0,21.5,0,6.6,0
2003/1/2,23:00:00,23.3,0,46.2,0,22.9,0,21.5,0,6.7,0
2003/1/2,23:10:00,23.3,0,46.1,0,22.8,0,21.5,0,6.8,0
2003/1/2,23:20:00,23.3,0,45.9,0,22.8,0,21.5,0,6.9,0
2003/1/2,23:30:00,23.3,0,45.6,0,22.8,0,21.5,0,7,0
2003/1/2,23:40:00,23.2,0,45.5,0,22.8,0,21.4,0,7.1,0
2003/1/2,23:50:00,23.2,0,45.2,0,22.8,0,21.4,0,7.2,0
2003/1/3,0:00:00,23.1,0,45,0,22.7,0,21.3,0,7.3,0
2003/1/3,0:10:00,23.1,0,44.9,0,22.7,0,21.3,0,7.4,0
2003/1/3,0:20:00,23,0,44.8,0,22.7,0,21.3,0,7.5,0
2003/1/3,0:30:00,23,0,44.7,0,22.7,0,21.2,0,7.6,0
2003/1/3,0:40:00,22.9,0,44.8,0,22.8,0,21.2,0,7.7,0
2003/1/3,0:50:00,22.9,0,44.8,0,22.8,0,21.2,0,7.8,0
2003/1/3,1:00:00,22.9,0,44.8,0,22.8,0,21.1,0,7.9,0
2003/1/3,1:10:00,22.8,0,44.7,0,22.8,0,21.1,0,8,0
2003/1/3,1:20:00,22.8,0,44.7,0,22.8,0,21,0,8.1,0
2003/1/3,1:30:00,22.8,0,44.8,0,22.8,0,21,0,8.2,0
2003/1/3,1:40:00,22.7,0,44.7,0,22.8,0,21,0,8.3,0
2003/1/3,1:50:00,22.7,0,44.9,0,22.7,0,21,0,8.4,0
2003/1/3,2:00:00,22.6,0,44.8,0,22.7,0,20.9,0,8.5,0
2003/1/3,2:10:00,22.6,0,44.9,0,22.7,0,20.9,0,8.6,0
2003/1/3,2:20:00,22.5,0,44.8,0,22.7,0,20.9,0,8.7,0
2003/1/3,2:30:00,22.5,0,44.7,0,22.6,0,20.8,0,8.7,0
2003/1/3,2:40:00,22.4,0,44.7,0,22.6,0,20.8,0,8.8,0
2003/1/3,2:50:00,22.4,0,44.7,0,22.6,0,20.8,0,8.9,0
2003/1/3,3:00:00,22.4,0,44.7,0,22.6,0,20.7,0,9,0
2003/1/3,3:10:00,22.3,0,44.8,0,22.6,0,20.7,0,9.1,0
2003/1/3,3:20:00,22.3,0,45,0,22.5,0,20.7,0,9.1,0
2003/1/3,3:30:00,22.2,0,45,0,22.5,0,20.7,0,9.2,0
2003/1/3,3:40:00,22.2,0,44.9,0,22.5,0,20.6,0,9.3,0
2003/1/3,3:50:00,22.2,0,44.8,0,22.4,0,20.6,0,9.4,0
2003/1/3,4:00:00,22.1,0,45.1,0,22.4,0,20.6,0,9.4,0
2003/1/3,4:10:00,22.1,0,44.8,0,22.4,0,20.5,0,9.5,0
2003/1/3,4:20:00,22.1,0,45,0,22.3,0,20.5,0,9.6,0
2003/1/3,4:30:00,22,0,44.9,0,22.3,0,20.5,0,9.6,0
2003/1/3,4:40:00,22,0,45.1,0,22.3,0,20.5,0,9.7,0
2003/1/3,4:50:00,21.9,0,44.9,0,22.2,0,20.4,0,9.8,0
2003/1/3,5:00:00,21.9,0,44.9,0,22.2,0,20.4,0,9.8,0
2003/1/3,5:10:00,21.9,0,45.1,0,22.2,0,20.4,0,9.9,0
2003/1/3,5:20:00,21.8,0,45,0,22.1,0,20.3,0,10,0
2003/1/3,5:30:00,21.8,0,44.9,0,22.1,0,20.3,0,10,0
2003/1/3,5:40:00,21.7,0,44.9,0,22,0,20.3,0,10.1,0
2003/1/3,5:50:00,21.7,0,45,0,22,0,20.3,0,10.2,0
2003/1/3,6:00:00,21.7,0,44.9,0,22,0,20.2,0,10.3,0
2003/1/3,6:10:00,21.6,0,44.8,0,21.9,0,20.2,0,10.3,0
2003/1/3,6:20:00,21.6,0,45,0,21.9,0,20.2,0,10.4,0
2003/1/3,6:30:00,21.5,0,45,0,21.8,0,20.1,0,10.5,0
2003/1/3,6:40:00,21.5,0,44.8,0,21.8,0,20.1,0,10.5,0
2003/1/3,6:50:00,21.5,0,44.7,0,21.7,0,20.1,0,10.6,0
2003/1/3,7:00:00,21.6,0,45.2,0,21.7,0,20.1,0,10.7,0
2003/1/3,7:10:00,21.6,0,45.4,0,21.6,0,20.2,0,10.7,0
2003/1/3,7:20:00,21.6,0,45.2,0,21.6,0,20.2,0,10.8,0
2003/1/3,7:30:00,21.7,0,44.9,0,21.5,0,20.2,0,10.8,0
2003/1/3,7:40:00,21.7,0,44.7,0,21.5,0,20.2,0,10.9,0
2003/1/3,7:50:00,21.7,0,44.6,0,21.4,0,20.3,0,11,0
2003/1/3,8:00:00,21.7,0,44.7,0,21.4,0,20.3,0,11,0
2003/1/3,8:10:00,21.7,0,44.6,0,21.4,0,20.3,0,11.1,0
2003/1/3,8:20:00,21.7,0,44.7,0,21.4,0,20.3,0,11.1,0
2003/1/3,8:30:00,21.7,0,44.7,0,21.4,0,20.4,0,11.2,0
2003/1/3,8:40:00,21.7,0,44.6,0,21.4,0,20.4,0,11.3,0
2003/1/3,8:50:00,21.7,0,44.8,0,21.4,0,20.4,0,11.3,0
2003/1/3,9:00:00,21.7,0,44.7,0,21.4,0,20.4,0,11.4,0
2003/1/3,9:10:00,21.7,0,44.3,0,21.4,0,20.5,0,11.4,0
2003/1/3,9:20:00,21.8,0,44.5,0,21.5,0,20.5,0,11.5,0
2003/1/3,9:30:00,21.8,0,44.7,0,21.5,0,20.6,0,11.5,0
2003/1/3,9:40:00,21.8,0,44.8,0,21.6,0,20.6,0,11.6,0
2003/1/3,9:50:00,21.9,0,44.9,0,21.6,0,20.6,0,11.7,0
2003/1/3,10:00:00,21.9,0,45,0,21.7,0,20.7,0,11.7,0
2003/1/3,10:10:00,21.9,0,45.2,0,21.8,0,20.7,0,11.8,0
2003/1/3,10:20:00,22,0,45.3,0,21.9,0,20.7,0,11.8,0
2003/1/3,10:30:00,22,0,45.5,0,22,0,20.8,0,11.9,0
2003/1/3,10:40:00,22.1,0,45.7,0,22.1,0,20.8,0,11.9,0
2003/1/3,10:50:00,22.2,0,46,0,22.3,0,20.8,0,12,0
2003/1/3,11:00:00,22.2,0,46.1,0,22.4,0,20.9,0,12,0
2003/1/3,11:10:00,22.3,0,46.3,0,22.6,0,20.9,0,12.1,0
2003/1/3,11:20:00,22.4,0,46.4,0,22.7,0,21,0,12.2,0
2003/1/3,11:30:00,22.5,0,46.4,0,22.9,0,21,0,12.2,0
2003/1/3,11:40:00,22.6,0,46.6,0,23.1,0,21.1,0,12.3,0
2003/1/3,11:50:00,22.7,0,46.6,0,23.2,0,21.1,0,12.3,0
2003/1/3,12:00:00,22.7,0,46.7,0,23.4,0,21.2,0,12.4,0
2003/1/3,12:10:00,22.8,0,46.7,0,23.6,0,21.2,0,12.4,0
2003/1/3,12:20:00,22.9,0,46.7,0,23.7,0,21.3,0,12.5,0
2003/1/3,12:30:00,22.9,0,46.6,0,23.8,0,21.3,0,12.5,0
2003/1/3,12:40:00,23,0,46.4,0,23.8,0,21.3,0,12.6,0
2003/1/3,12:50:00,23,0,46.2,0,23.9,0,21.3,0,12.6,0
2003/1/3,13:00:00,23,0,46.2,0,23.9,0,21.3,0,12.7,0
2003/1/3,13:10:00,23,0,46.1,0,23.9,0,21.3,0,12.7,0
2003/1/3,13:20:00,23,0,46.1,0,23.9,0,21.3,0,12.8,0
2003/1/3,13:30:00,23,0,46.1,0,23.9,0,21.3,0,12.9,0
2003/1/3,13:40:00,23,0,46,0,23.9,0,21.3,0,12.9,0
2003/1/3,13:50:00,23.1,0,45.9,0,23.9,0,21.3,0,12.9,0
2003/1/3,14:00:00,23.1,0,46,0,23.9,0,21.3,0,13,0
2003/1/3,14:10:00,23.1,0,46.6,0,23.9,0,21.3,0,13,0
2003/1/3,14:20:00,23.1,0,46.6,0,23.9,0,21.3,0,13.1,0
2003/1/3,14:30:00,23.1,0,46.4,0,23.8,0,21.2,0,13.1,0
2003/1/3,14:40:00,23.1,0,46.5,0,23.7,0,21.2,0,13.2,0
2003/1/3,14:50:00,23,0,46.5,0,23.6,0,21.2,0,13.2,0
2003/1/3,15:00:00,23,0,46.3,0,23.6,0,21.1,0,13.3,0
2003/1/3,15:10:00,23,0,46,0,23.5,0,21.1,0,13.3,0
2003/1/3,15:20:00,23,0,45.9,0,23.5,0,21.2,0,13.3,0
2003/1/3,15:30:00,23,0,45.9,0,23.4,0,21.2,0,13.4,0
2003/1/3,15:40:00,23,0,45.8,0,23.4,0,21.2,0,13.4,0
2003/1/3,15:50:00,23,0,45.7,0,23.3,0,21.2,0,13.5,0
2003/1/3,16:00:00,23,0,45.6,0,23.3,0,21.2,0,13.5,0
2003/1/3,16:10:00,22.9,0,45.5,0,23.2,0,21.2,0,13.5,0
2003/1/3,16:20:00,22.9,0,45.3,0,23.2,0,21.2,0,13.6,0
2003/1/3,16:30:00,22.9,0,45.2,0,23.2,0,21.1,0,13.6,0
2003/1/3,16:40:00,22.9,0,45.1,0,23.1,0,21.1,0,13.7,0
2003/1/3,16:50:00,22.9,0,44.7,0,23.1,0,21.1,0,13.7,0
2003/1/3,17:00:00,22.9,0,44.9,0,23,0,21.2,0,13.7,0
2003/1/3,17:10:00,22.8,0,44.7,0,23,0,21.2,0,13.8,0
2003/1/3,17:20:00,22.8,0,44.8,0,22.9,0,21.2,0,13.8,0
2003/1/3,17:30:00,22.8,0,44.9,0,22.9,0,21.2,0,13.8,0
2003/1/3,17:40:00,22.8,0,44.5,0,22.9,0,21.2,0,13.9,0
2003/1/3,17:50:00,22.8,0,43.9,0,22.8,0,21.2,0,13.9,0
2003/1/3,18:00:00,22.8,0,44.2,0,22.8,0,21.2,0,13.9,0
2003/1/3,18:10:00,22.8,0,43.9,0,22.7,0,21.2,0,14,0
2003/1/3,18:20:00,22.8,0,44.3,0,22.7,0,21.2,0,9.9,0
2003/1/3,18:30:00,22.8,0,46,0,22.7,0,21.2,0,9.9,0
2003/1/3,18:40:00,22.8,0,45.9,0,22.7,0,21.3,0,10,0
2003/1/3,18:50:00,22.9,0,45.5,0,22.7,0,21.3,0,10.1,0
2003/1/3,19:00:00,22.9,0,45.5,0,22.7,0,21.3,0,10.2,0
2003/1/3,19:10:00,22.9,0,45.9,0,22.7,0,21.3,0,10.3,0
2003/1/3,19:20:00,22.9,0,46.4,0,22.7,0,21.3,0,10.4,0
2003/1/3,19:30:00,22.9,0,46.5,0,22.7,0,21.3,0,8.5,0
2003/1/3,19:40:00,23,0,46.4,0,22.7,0,21.4,0,8.6,0
2003/1/3,19:50:00,23,0,46.6,0,22.8,0,21.4,0,7.7,0
2003/1/3,20:00:00,23,0,47,0,22.8,0,21.4,0,7.8,0
2003/1/3,20:10:00,23.1,0,47,0,22.9,0,21.5,0,7.9,0
2003/1/3,20:20:00,23.1,0,46.8,0,22.9,0,21.5,0,7.2,0
2003/1/3,20:30:00,23.1,0,47.1,0,22.9,0,21.5,0,7.4,0
2003/1/3,20:40:00,23.1,0,47.4,0,22.9,0,21.5,0,7.5,0
2003/1/3,20:50:00,23.2,0,47.6,0,23,0,21.6,0,7.6,0
2003/1/3,21:00:00,23.2,0,47.5,0,23,0,21.6,0,7.7,0
2003/1/3,21:10:00,23.2,0,47.1,0,23.1,0,21.6,0,7.8,0
2003/1/3,21:20:00,23.3,0,46.5,0,23.1,0,21.6,0,7.9,0
2003/1/3,21:30:00,23.3,0,46.3,0,23.2,0,21.7,0,8,0
2003/1/3,21:40:00,23.3,0,45.8,0,23.3,0,21.7,0,8.1,0
2003/1/3,21:50:00,23.3,0,45.9,0,23.4,0,21.7,0,8.2,0
2003/1/3,22:00:00,23.3,0,45.9,0,23.5,0,21.8,0,8.3,0
2003/1/3,22:10:00,23.4,0,46.5,0,23.5,0,21.9,0,8.4,0
2003/1/3,22:20:00,23.4,0,47.4,0,23.6,0,22,0,8.5,0
2003/1/3,22:30:00,23.5,0,50.8,0,23.6,0,22.2,0,8.6,0
2003/1/3,22:40:00,23.5,0,50.4,0,23.6,0,22.2,0,8.7,0
2003/1/3,22:50:00,23.5,0,49.8,0,23.7,0,22.3,0,6.1,0
2003/1/3,23:00:00,23.6,0,49.2,0,23.7,0,22.3,0,6.4,0
2003/1/3,23:10:00,23.6,0,49.4,0,23.7,0,22.4,0,6.5,0
2003/1/3,23:20:00,23.6,0,50.4,0,23.8,0,22.4,0,6.7,0
2003/1/3,23:30:00,23.6,0,49.9,0,23.8,0,22.4,0,6.8,0
2003/1/3,23:40:00,23.6,0,49,0,23.9,0,22.4,0,6.9,0
2003/1/3,23:50:00,23.6,0,49.1,0,23.9,0,22.4,0,7,0
2003/1/4,0:00:00,23.6,0,49.1,0,23.9,0,22.4,0,7.1,0
2003/1/4,0:10:00,23.6,0,49.1,0,23.9,0,22.4,0,7.3,0
2003/1/4,0:20:00,23.6,0,49.8,0,23.8,0,22.4,0,7.4,0
2003/1/4,0:30:00,23.6,0,49.3,0,23.8,0,22.3,0,7.5,0
2003/1/4,0:40:00,23.6,0,49.6,0,23.7,0,22.3,0,7.6,0
2003/1/4,0:50:00,23.6,0,49,0,23.6,0,22.3,0,7.7,0
2003/1/4,1:00:00,23.6,0,49,0,23.6,0,22.3,0,7.8,0
2003/1/4,1:10:00,23.6,0,48.7,0,23.5,0,22.3,0,7.9,0
2003/1/4,1:20:00,23.5,0,48.5,0,23.5,0,22.3,0,8.1,0
2003/1/4,1:30:00,23.5,0,48.4,0,23.4,0,22.2,0,8.2,0
2003/1/4,1:40:00,23.5,0,48.4,0,23.3,0,22.2,0,8.3,0
2003/1/4,1:50:00,23.5,0,48.2,0,23.3,0,22.2,0,8.4,0
2003/1/4,2:00:00,23.5,0,48.1,0,23.2,0,22.2,0,8.5,0
2003/1/4,2:10:00,23.4,0,48.3,0,23.1,0,22.2,0,8.6,0
2003/1/4,2:20:00,23.4,0,48.2,0,23.1,0,22.2,0,8.7,0
2003/1/4,2:30:00,23.4,0,48,0,23,0,22.2,0,8.8,0
2003/1/4,2:40:00,23.4,0,47.7,0,23,0,22.2,0,8.9,0
2003/1/4,2:50:00,23.4,0,47.9,0,22.9,0,22.2,0,9,0
2003/1/4,3:00:00,23.4,0,47.6,0,22.9,0,22.2,0,9.1,0
2003/1/4,3:10:00,23.3,0,47.5,0,22.9,0,22.2,0,9.2,0
2003/1/4,3:20:00,23.3,0,47.7,0,22.8,0,22.2,0,9.3,0
2003/1/4,3:30:00,23.3,0,47.7,0,22.7,0,22.1,0,9.4,0
2003/1/4,3:40:00,23.3,0,47.5,0,22.7,0,22.1,0,9.5,0
2003/1/4,3:50:00,23.3,0,47.5,0,22.6,0,22.1,0,9.6,0
2003/1/4,4:00:00,23.3,0,47.3,0,22.6,0,22.1,0,9.7,0